Shelby, NC

8:52 PM EST on December 13, 2017 (GMT -0500)
Shelby Municipal

Weather History for KEHO - January, 2006

Change the Weather History Date:

Tuesday, January 10, 2006

  Actual Average (KHKY) Record (KHKY)
Temperature  
Mean Temperature 52 °F -  
Max Temperature 62 °F 44 °F 80 °F (1949)
Min Temperature 41 °F 27 °F 4 °F (1982)
Degree Days  
Heating Degree Days 14    
Growing Degree Days 2 (Base 50)    
Moisture  
Dew Point 49 °F    
Average Humidity 90    
Maximum Humidity 100    
Minimum Humidity 72    
Precipitation  
Precipitation 0.00 in - - ()
Sea Level Pressure  
Sea Level Pressure 30.33 in    
Wind  
Wind Speed 1 mph (ESE)    
Max Wind Speed 5 mph    
Max Gust Speed -    
Visibility 6 miles    
Events Fog    
Averages and records for this station are not official NWS values.
T = Trace of Precipitation, MM = Missing Value Source: NWS Daily Summary

Daily Weather History Graph

Daily Weather History Graph

Search for Another Location

Airport or City:

Trip Planner

Search our weather history database for the weather conditions in past years. The results will help you decide how hot, cold, wet, or windy it might be!

Date:

Astronomy

Jan. 10, 2006 Rise Set
Actual Time 7:35 AM EST 5:32 PM EST
Civil Twilight 7:07 AM EST 6:00 PM EST
Nautical Twilight 6:36 AM EST 6:31 PM EST
Astronomical Twilight 6:05 AM EST 7:02 PM EST
Moon 2:12 PM EST (1/10) 4:28 AM EST (1/10)
Length of Visible Light 10h 52m
Length of Day
9h 57m
Waxing Gibbous, 87% of the Moon is Illuminated
Jan 10
Waxing Gibbous
Jan 14
Full
Jan 22
Last Quarter
Jan 29
New
Feb 5
First Quarter

Hourly Weather History & Observations

Time (EST) Temp. Windchill Dew Point Humidity Pressure Visibility Wind Dir Wind Speed Gust Speed Precip Events Conditions
12:01 AM 51.8 °F - 50.0 °F 94% 30.31 in 10.0 mi Calm Calm - N/A   Clear
12:21 AM 53.6 °F - 50.0 °F 88% 30.31 in 10.0 mi Calm Calm - N/A   Clear
1:01 AM 53.6 °F - 50.0 °F 88% 30.31 in 10.0 mi Calm Calm - N/A   Scattered Clouds
1:21 AM 48.2 °F - 46.4 °F 93% 30.31 in 7.0 mi SSE 4.6 mph - N/A   Scattered Clouds
1:41 AM 48.2 °F - 46.4 °F 93% 30.32 in 5.0 mi SE 3.5 mph - N/A   Scattered Clouds
2:01 AM 50.0 °F - 50.0 °F 100% 30.32 in 7.0 mi Calm Calm - N/A   Mostly Cloudy
2:21 AM 50.0 °F - 50.0 °F 100% 30.32 in 7.0 mi Calm Calm - N/A   Overcast
2:41 AM 50.0 °F - 48.2 °F 94% 30.32 in 5.0 mi SSE 3.5 mph - N/A   Overcast
3:01 AM 50.0 °F - 50.0 °F 100% 30.33 in 5.0 mi Calm Calm - N/A   Overcast
3:21 AM 48.2 °F - 46.4 °F 93% 30.33 in 3.0 mi Calm Calm - N/A   Overcast
3:41 AM 46.4 °F - 44.6 °F 93% 30.33 in 3.0 mi Calm Calm - N/A   Scattered Clouds
4:01 AM 46.4 °F - 46.4 °F 100% 30.33 in 1.8 mi Calm Calm - N/A   Mist
4:21 AM 44.6 °F - 44.6 °F 100% 30.33 in 3.0 mi Calm Calm - N/A   Clear
5:01 AM 48.2 °F - 48.2 °F 100% 30.33 in 2.5 mi Calm Calm - N/A   Clear
5:21 AM 46.4 °F - 46.4 °F 100% 30.33 in 0.5 mi Calm Calm - N/A Fog Fog
6:01 AM 42.8 °F 41.1 °F 42.8 °F 100% 30.34 in 0.8 mi NE 3.5 mph - N/A   Mist
6:21 AM 42.8 °F - 42.8 °F 100% 30.35 in 2.5 mi Calm Calm - N/A   Clear
7:01 AM 41.0 °F - 41.0 °F 100% 30.36 in 1.2 mi Calm Calm - N/A   Mist
7:21 AM 42.8 °F 41.1 °F 42.8 °F 100% 30.36 in 0.5 mi NNE 3.5 mph - N/A Fog Fog
7:41 AM 42.8 °F - 42.8 °F 100% 30.37 in 0.8 mi Calm Calm - N/A   Mist
8:01 AM 42.8 °F - 42.8 °F 100% 30.37 in 0.8 mi Calm Calm - N/A   Mist
9:01 AM 42.8 °F - 42.8 °F 100% 30.40 in 0.2 mi Calm Calm - N/A Fog Fog
9:21 AM 42.8 °F - 42.8 °F 100% 30.41 in 0.2 mi Calm Calm - N/A Fog Fog
9:41 AM 44.6 °F - 44.6 °F 100% 30.41 in 0.2 mi Calm Calm - N/A Fog Fog
10:01 AM 46.4 °F - 46.4 °F 100% 30.42 in 0.2 mi Calm Calm - N/A Fog Fog
10:21 AM 46.4 °F 45.2 °F 46.4 °F 100% 30.42 in 0.2 mi NNE 3.5 mph - N/A Fog Fog
10:41 AM 46.4 °F 45.2 °F 46.4 °F 100% 30.42 in 0.2 mi NE 3.5 mph - N/A Fog Fog
11:21 AM 48.2 °F - 48.2 °F 100% 30.41 in 1.0 mi NE 3.5 mph - N/A   Overcast
12:04 PM 51.8 °F - 51.8 °F 100% 30.38 in 5.0 mi Calm Calm - N/A   Overcast
12:21 PM 53.6 °F - 53.6 °F 100% 30.37 in 7.0 mi Calm Calm - N/A   Overcast
12:41 PM 53.6 °F - 51.8 °F 94% 30.35 in 7.0 mi Calm Calm - N/A   Overcast
1:01 PM 55.4 °F - 51.8 °F 88% 30.34 in 10.0 mi Calm Calm - N/A   Overcast
1:21 PM 57.2 °F - 51.8 °F 82% 30.33 in 10.0 mi Calm Calm - N/A   Overcast
2:01 PM 59.0 °F - 53.6 °F 82% 30.32 in 10.0 mi Calm Calm - N/A   Overcast
2:21 PM 60.8 °F - 51.8 °F 72% 30.31 in 10.0 mi Calm Calm - N/A   Overcast
3:01 PM 62.6 °F - 53.6 °F 72% 30.31 in 10.0 mi Calm Calm - N/A   Clear
3:41 PM 62.6 °F - 53.6 °F 72% 30.30 in 10.0 mi Calm Calm - N/A   Mostly Cloudy
4:01 PM 62.6 °F - 53.6 °F 72% 30.29 in 10.0 mi Calm Calm - N/A   Mostly Cloudy
4:21 PM 62.6 °F - 53.6 °F 72% 30.29 in 10.0 mi Calm Calm - N/A   Mostly Cloudy
5:01 PM 62.6 °F - 53.6 °F 72% 30.29 in 10.0 mi Calm Calm - N/A   Overcast
5:21 PM 60.8 °F - 53.6 °F 77% 30.29 in 10.0 mi Calm Calm - N/A   Overcast
6:01 PM 60.8 °F - 53.6 °F 77% 30.29 in 10.0 mi East 3.5 mph - N/A   Overcast
6:21 PM 60.8 °F - 53.6 °F 77% 30.29 in 10.0 mi ESE 3.5 mph - N/A   Overcast
7:01 PM 60.8 °F - 53.6 °F 77% 30.29 in 10.0 mi Calm Calm - N/A   Overcast
7:21 PM 60.8 °F - 51.8 °F 72% 30.29 in 10.0 mi Calm Calm - N/A   Overcast
8:01 PM 59.0 °F - 51.8 °F 77% 30.29 in 10.0 mi Calm Calm - N/A   Scattered Clouds
8:21 PM 57.2 °F - 51.8 °F 82% 30.28 in 10.0 mi SE 3.5 mph - N/A   Clear
8:41 PM 55.4 °F - 51.8 °F 88% 30.29 in 10.0 mi Calm Calm - N/A   Scattered Clouds
9:01 PM 55.4 °F - 51.8 °F 88% 30.28 in 10.0 mi SE 3.5 mph - N/A   Scattered Clouds
10:01 PM 55.4 °F - 50.0 °F 82% 30.29 in 10.0 mi South 4.6 mph - N/A   Scattered Clouds
10:21 PM 55.4 °F - 50.0 °F 82% 30.29 in 10.0 mi South 4.6 mph - N/A   Clear
11:01 PM 53.6 °F - 50.0 °F 88% 30.27 in 10.0 mi SSE 3.5 mph - N/A   Clear
11:21 PM 53.6 °F - 50.0 °F 88% 30.27 in 10.0 mi South 3.5 mph - N/A   Clear
11:41 PM 53.6 °F - 48.2 °F 82% 30.27 in 10.0 mi Calm Calm - N/A   Clear